Date String (YYYY-MM-DD hh:mm:ss) UTC,Instrument flags,absolute air pressure of the measurement (hPa),sample flow rate (lpm),inlet stack bypass flow (lpm),air temperature of the measurement (°C),ambient temperature measured by the external sensor (°C),aerosol sample conditioner tube jacket temperature (°C),OPC LED temperature (°C),internal box temperature (°C),relative humidity of the measurement (%),span deviation,mass concentration of particles derived from Lorenz-Mie calculation of OPC scattering (μg/m³),mass concentration of particles derived from Lorenz-Mie calculation of OPC scattering (μg/m³),mass concentration of particles derived from Lorenz-Mie calculation of OPC scattering (μg/m³)
DateTimeUTC,F1_M11,P_M11,Q1_M11,Q2_M11,T1_M11,T2_M11,T3_M11,T4_M11,T5_M11,U1_M11,ZSPAN_M11,X2_M11,X0_M11,X1_M11
2023-11-05 02:00:00,SystemResetWarning,0832.2,4.99,000.00,027.7,024.5,000.0,036.2,028.6,13.6,0000.0,0002.45,0008.78,0001.55
2023-11-05 02:01:00,SystemResetWarning,0832.2,5.01,000.00,027.6,024.9,000.0,036.2,028.7,13.7,0000.0,0002.49,0009.57,0001.56
2023-11-05 02:02:00,SystemResetWarning,0832.2,5.00,000.00,027.6,025.3,000.0,036.2,028.8,13.7,0000.0,0002.51,0009.36,0001.58
2023-11-05 02:03:00,SystemResetWarning,0832.2,4.99,000.00,027.6,025.5,000.0,036.1,028.8,13.9,0000.0,0002.49,0009.55,0001.57
2023-11-05 02:04:00,SystemResetWarning,0832.2,4.99,000.00,027.6,025.8,000.0,036.1,028.9,13.9,0000.0,0002.55,0009.08,0001.58
2023-11-05 02:05:00,SystemResetWarning,0832.2,5.00,000.00,027.6,025.9,000.0,036.1,028.9,13.9,0000.0,0002.65,0008.90,0001.58
2023-11-05 02:06:00,SystemResetWarning,0832.2,4.99,000.00,027.6,026.1,000.0,036.1,028.9,14.0,0000.0,0002.65,0009.05,0001.58
2023-11-05 02:07:00,SystemResetWarning,0832.1,5.01,000.00,027.6,026.2,000.0,036.0,029.0,13.9,0000.0,0002.61,0009.04,0001.55
2023-11-05 02:08:00,SystemResetWarning,0832.0,5.01,000.00,027.6,026.3,000.0,036.0,029.0,13.9,0000.0,0002.58,0008.98,0001.55
2023-11-05 02:09:00,SystemResetWarning,0832.1,5.00,000.00,027.6,026.4,000.0,036.0,029.1,13.8,0000.0,0002.57,0008.76,0001.53
2023-11-05 02:10:00,SystemResetWarning,0832.1,5.00,000.00,027.6,026.4,000.0,036.0,029.1,13.8,0000.0,0002.55,0008.85,0001.51
2023-11-05 02:11:00,SystemResetWarning,0832.1,5.00,000.00,027.6,026.5,000.0,036.0,029.1,13.8,0000.0,0002.57,0009.32,0001.50
2023-11-05 02:12:00,SystemResetWarning,0832.1,4.99,000.00,027.7,026.5,000.0,036.0,029.1,13.9,0000.0,0002.53,0008.21,0001.48
2023-11-05 02:13:00,SystemResetWarning,0832.1,5.00,000.00,027.7,026.5,000.0,036.0,029.1,13.9,0000.0,0002.51,0008.76,0001.47
2023-11-05 02:14:00,SystemResetWarning,0832.1,5.00,000.00,027.7,026.5,000.0,036.0,029.1,13.8,0000.0,0002.55,0008.86,0001.47
2023-11-05 02:15:00,SystemResetWarning,0832.1,5.00,000.00,027.7,026.6,000.0,036.0,029.1,13.7,0000.0,0002.49,0008.55,0001.46
2023-11-05 02:16:00,SystemResetWarning,0832.0,5.00,000.00,027.7,026.6,000.0,036.0,029.1,13.8,0000.0,0002.46,0008.61,0001.44
2023-11-05 02:17:00,SystemResetWarning,0832.1,4.99,000.00,027.7,026.6,000.0,036.0,029.2,13.8,0000.0,0002.48,0008.83,0001.43
2023-11-05 02:18:00,SystemResetWarning,0832.0,5.00,000.00,027.7,026.6,000.0,036.0,029.1,13.7,0000.0,0002.45,0008.53,0001.43
2023-11-05 02:19:00,SystemResetWarning,0832.1,5.01,000.00,027.7,026.6,000.0,036.1,029.1,13.7,0000.0,0002.47,0009.79,0001.42
2023-11-05 02:20:00,SystemResetWarning,0832.1,5.00,000.00,027.7,026.6,000.0,036.1,029.2,13.8,0000.0,0002.45,0010.77,0001.42
2023-11-05 02:21:00,SystemResetWarning,0832.1,5.01,000.00,027.7,026.7,000.0,036.1,029.2,13.7,0000.0,0002.40,0010.55,0001.42
2023-11-05 02:22:00,SystemResetWarning,0832.0,5.00,000.00,027.7,026.7,000.0,036.1,029.2,13.8,0000.0,0002.38,0009.97,0001.43
2023-11-05 02:23:00,SystemResetWarning,0832.1,5.01,000.00,027.8,026.7,000.0,036.1,029.2,13.7,0000.0,0002.44,0009.98,0001.43
2023-11-05 02:24:00,SystemResetWarning,0832.1,4.99,000.00,027.8,026.7,000.0,036.1,029.2,13.6,0000.0,0002.42,0009.19,0001.42
2023-11-05 02:25:00,SystemResetWarning,0832.1,4.99,000.00,027.8,026.7,000.0,036.1,029.2,13.6,0000.0,0002.37,0008.89,0001.43
2023-11-05 02:26:00,SystemResetWarning,0832.1,4.99,000.00,027.8,026.7,000.0,036.1,029.2,13.6,0000.0,0002.40,0009.51,0001.44
2023-11-05 02:27:00,SystemResetWarning,0832.1,5.01,000.00,027.8,026.8,000.0,036.1,029.3,13.6,0000.0,0002.34,0009.69,0001.44
2023-11-05 02:28:00,SystemResetWarning,0832.2,5.01,000.00,027.8,026.8,000.0,036.1,029.3,13.6,0000.0,0002.30,0009.22,0001.45
2023-11-05 02:29:00,SystemResetWarning,0832.1,5.01,000.00,027.8,026.8,000.0,036.1,029.3,13.6,0000.0,0002.34,0009.51,0001.45
2023-11-05 02:30:00,SystemResetWarning,0832.1,5.00,000.00,027.8,026.8,000.0,036.1,029.3,13.6,0000.0,0002.34,0008.47,0001.46
2023-11-05 02:31:00,SystemResetWarning,0832.0,5.00,000.00,027.8,026.8,000.0,036.1,029.3,13.5,0000.0,0002.33,0007.50,0001.48
2023-11-05 02:32:00,SystemResetWarning,0832.0,4.99,000.00,027.8,026.8,000.0,036.2,029.3,13.5,0000.0,0002.35,0007.53,0001.49
2023-11-05 02:33:00,SystemResetWarning,0832.0,4.99,000.00,027.9,026.9,000.0,036.2,029.3,13.5,0000.0,0002.35,0007.74,0001.48
2023-11-05 02:34:00,SystemResetWarning,0832.0,4.99,000.00,027.9,026.9,000.0,036.2,029.4,13.5,0000.0,0002.30,0007.75,0001.49
2023-11-05 02:35:00,SystemResetWarning,0832.0,5.00,000.00,027.9,026.9,000.0,036.2,029.4,13.5,0000.0,0002.34,0007.76,0001.49
2023-11-05 02:36:00,SystemResetWarning,0832.0,5.00,000.00,027.9,026.9,000.0,036.2,029.4,13.5,0000.0,0002.40,0008.26,0001.49
2023-11-05 02:37:00,SystemResetWarning,0832.0,5.00,000.00,027.9,026.9,000.0,036.2,029.4,13.7,0000.0,0002.40,0008.19,0001.50
2023-11-05 02:38:00,SystemResetWarning,0831.9,5.01,000.00,027.9,026.9,000.0,036.2,029.3,13.7,0000.0,0002.40,0007.83,0001.50
2023-11-05 02:39:00,SystemResetWarning,0831.9,5.00,000.00,027.9,026.9,000.0,036.2,029.4,13.6,0000.0,0002.38,0007.73,0001.49
2023-11-05 02:40:00,SystemResetWarning,0831.9,4.99,000.00,027.9,026.9,000.0,036.2,029.4,13.7,0000.0,0002.38,0007.44,0001.49
2023-11-05 02:41:00,SystemResetWarning,0831.9,5.00,000.00,027.9,026.9,000.0,036.2,029.4,13.8,0000.0,0002.34,0006.97,0001.50
2023-11-05 02:42:00,SystemResetWarning,0831.9,5.00,000.00,027.9,026.9,000.0,036.3,029.4,14.0,0000.0,0002.32,0006.94,0001.48
2023-11-05 02:43:00,SystemResetWarning,0831.9,4.99,000.00,027.9,026.9,000.0,036.3,029.3,13.9,0000.0,0002.39,0007.06,0001.48
2023-11-05 02:44:00,SystemResetWarning,0831.8,5.00,000.00,027.9,026.9,000.0,036.3,029.3,13.5,0000.0,0002.42,0007.39,0001.49
2023-11-05 02:45:00,SystemResetWarning,0831.8,5.00,000.00,027.9,026.9,000.0,036.3,029.4,13.5,0000.0,0002.45,0007.51,0001.50
2023-11-05 02:46:00,SystemResetWarning,0831.8,5.00,000.00,028.0,027.0,000.0,036.3,029.4,13.5,0000.0,0002.43,0008.61,0001.50
2023-11-05 02:47:00,SystemResetWarning,0831.9,5.00,000.00,028.0,027.0,000.0,036.3,029.4,13.5,0000.0,0002.38,0009.11,0001.50
2023-11-05 02:48:00,SystemResetWarning,0831.9,5.00,000.00,028.0,027.0,000.0,036.3,029.4,13.6,0000.0,0002.34,0009.50,0001.49
2023-11-05 02:49:00,SystemResetWarning,0832.0,5.01,000.00,028.0,027.0,000.0,036.3,029.4,13.9,0000.0,0002.34,0009.51,0001.50
2023-11-05 02:50:00,SystemResetWarning,0832.0,5.00,000.00,028.0,027.1,000.0,036.3,029.5,14.1,0000.0,0002.40,0010.15,0001.51
2023-11-05 02:51:00,SystemResetWarning,0832.0,4.99,000.00,028.0,027.1,000.0,036.3,029.5,14.0,0000.0,0002.44,0010.17,0001.53
2023-11-05 02:52:00,SystemResetWarning,0832.0,4.99,000.00,028.0,027.1,000.0,036.3,029.5,13.8,0000.0,0002.46,0010.24,0001.52
2023-11-05 02:53:00,SystemResetWarning,0832.0,4.99,000.00,028.0,027.1,000.0,036.3,029.5,13.8,0000.0,0002.46,0010.24,0001.52
2023-11-05 02:54:00,SystemResetWarning,0832.0,5.00,000.00,028.0,027.1,000.0,036.4,029.5,13.8,0000.0,0002.44,0010.20,0001.53
2023-11-05 02:55:00,SystemResetWarning,0832.0,5.00,000.00,028.1,027.1,000.0,036.4,029.5,13.7,0000.0,0002.42,0010.21,0001.53
2023-11-05 02:56:00,SystemResetWarning,0832.0,5.00,000.00,028.1,027.1,000.0,036.4,029.5,13.7,0000.0,0002.47,0010.63,0001.54
2023-11-05 02:57:00,SystemResetWarning,0832.1,5.00,000.00,028.1,027.1,000.0,036.4,029.5,13.6,0000.0,0002.46,0009.66,0001.54
2023-11-05 02:58:00,SystemResetWarning,0832.2,5.00,000.00,028.1,027.1,000.0,036.4,029.5,13.5,0000.0,0002.51,0009.44,0001.54
2023-11-05 02:59:00,SystemResetWarning,0832.2,5.00,000.00,028.1,027.1,000.0,036.4,029.6,13.5,0000.0,0002.54,0008.62,0001.54
